World > North America > United States > Pennsylvania > Big Cove Tannery

Hourly Big Cove Tannery, PA Regional Weather

Feedback E-mail the Weather

Quick WX

Big Cove Tannery, PA Weather Maps

°F °C°F °C
Big Cove Tannery Weather Map
UTC Time: 8/10/2022, 10:45
Your Time:

Big Cove Tannery, PA Regional Weather

Expires:202208101100;;785448
ASUS41 KCTP 101010
RWRCTP

REGIONAL WEATHER ROUNDUP
NATIONAL WEATHER SERVICE STATE COLLEGE PA
600 AM EDT WED AUG 10 2022

Note: "fair" indicates few or no clouds below 12,000 feet with no 
significant weather and/or obstructions to visibility.

* = STATION THAT DOES NOT REPORT PRECIPITATION /E.G. RAIN...SNOW...ETC/
    THUNDER OR FOG.


PAZ004>006-010>012-017>019-024>028-033>037-041-042-045-046-049>053-101100-
CENTRAL PENNSYLVANIA
  
CITY           SKY/WX    TMP DP  RH WIND       PRES   REMARKS
BRADFORD       PTCLDY    50  47  89 CALM      30.14F                  
ST MARYS       PTSUNNY   57  55  94 CALM      30.17S FOG              
DUBOIS         CLOUDY    64  59  83 N3        30.14R                  
CLEARFIELD     CLOUDY    65  61  87 N3        30.13R                  
JOHNSTOWN      CLOUDY    67  63  87 NW5       30.15R                  
SOMERSET       CLOUDY    66  64  94 NW3       30.16S                  
ALTOONA        CLOUDY    72  66  81 CALM      30.11S                  
STATE COLLEGE  CLOUDY    68  64  88 VRB5      30.11R                  
REEDSVILLE     PTSUNNY   72  72 100 NW6       30.08                   
WELLSBORO      PTSUNNY   59  59 100 CALM      30.13S                  
WILLIAMSPORT   CLOUDY    70  61  73 W3        30.07R                  
SELINSGROVE    CLOUDY    70  61  73 N3        30.07R                  
FT INDIANTOWN  PTCLDY    70  67  89 CALM      30.04R                  
CAPITAL CITY   MOCLDY    75  71  87 CALM      30.04S                  
HARRISBURG     PTCLDY    75  68  78 N6        30.04R                  
YORK           PTCLDY    72  70  93 CALM      30.05S                  
$$


SKY/WX - Weather  TMP - Temperature  DP - Dew Point  RH - Humidity
WIND - Wind Direction/Speed PRES - Barometric Pressure VSB - Visibility
WCI - Wind Chill Index E13G22 Wind - East Wind 13 mph/Gusts of 22 mph

Trending Headlines

Big Cove Tannery Radar Loop



Big Cove Tannery Quick Facts


National Two Day Weather Forecast


E-mail the Big Cove Tannery Weather Forecast

Voice your opinion or tell us about page issues...